Location: Trois-Rivi�res
(46.3500°N, 72.5500°W)
Time: 01:22:04
(UTC-04:00)

Cosmos 1544 - Visible Passes

Search period start: 21 October 2014 00:00
Search period end: 31 October 2014 00:00
Orbit: 500 x 523 km, 82.5° (Epoch: 20 October)

Date Brightness Start Highest point End Pass type
(mag) Time Alt. Az. Time Alt. Az. Time Alt. Az.
21 Oct 6.3 19:00:54 10° WSW 19:03:13 15° WNW 19:05:33 10° NNW visible
22 Oct 6.1 18:43:57 10° WSW 18:46:42 19° WNW 18:49:28 10° NNW visible
23 Oct 5.9 18:27:06 10° SW 18:30:10 22° WNW 18:33:15 10° NNW visible
